{"data":{"norad_id":52637,"intl_designator":"2022-052AR","name":"STARLINK-3961","alt_names":[],"object_type":"PAYLOAD","status":"ACTIVE","operator":null,"country":"US","launch_date":"2022-05-14","launch_site_code":"AFETR","launch_vehicle":null,"mission":null,"orbit_class":"UNKNOWN","rcs_meters":null,"size_class":null,"mass_kg":null,"dimensions":null,"purposes":["comms"],"wikipedia_slug":null,"has_3d_model":false,"image_url":null,"decayed_at":null,"tle_current":{"epoch":"2026-09-20T03:12:35.518752Z","epoch_age_seconds":98132,"freshness":"FRESH","line1":"1 52637U 22052AR  26263.13374443  .00001116  00000+0  47720-4 0  9994","line2":"2 52637  53.1600  92.7092 0001240  81.1047 279.0095 15.31702377241473","mean_motion":15.31702377,"eccentricity":0.000124,"inclination_deg":53.16,"raan_deg":92.7092,"arg_perigee_deg":81.1047,"mean_anomaly_deg":279.0095,"bstar":4.772e-5,"rev_number":24147,"period_min":94.013042065025,"perigee_km":469.88364965272,"apogee_km":471.58216939028,"semimajor_km":6848.8699095215,"source":"CELESTRAK","updated_at":"2026-09-20T09:00:40.097141Z"}}}